Regional Weather Roundup
Issued by NWS

Home | Current Version | Previous Version | Text Only | Print | Product List | Glossary Off
Versions: 1 2 3 4 5 6 7 8 9 10 11 12 13 14 15 16 17 18 19 20 21 22 23 24 25 26 27 28 29 30 31 32 33 34 35 36 37 38 39 40 41 42 43 44 45 46 47 48 49 50

000
ASUS43 KOAX 110202
RWRNE

WEATHER ROUNDUP FOR NEBRASKA
NATIONAL WEATHER SERVICE OMAHA NE
800 PM CST SAT DEC 10 2016

NOTES: SATELLITE DATA IS BEING USED TO AUGMENT CLOUD COVER ABOVE
       12000 FEET.
       "FAIR" INDICATES FEW OR NO CLOUDS BELOW 12,000 FEET WITH NO
       SIGNIFICANT WEATHER AND/OR OBSTRUCTIONS TO VISIBILITY.

  * THESE STATIONS DO NOT REPORT WEATHER SUCH AS RAIN...SNOW OR FOG.

NEZ001>004-019>022-054>056-110300-
NEBRASKA PANHANDLE

CITY           SKY/WX    TMP DP  RH WIND       PRES   REMARKS
SCOTTSBLUFF    CLOUDY    25  19  78 SE5       29.65F WCI  19
ALLIANCE       CLOUDY    27  22  81 S9        29.64F WCI  18
CHADRON        CLOUDY     8   4  83 N6        29.66F WCI  -2
KIMBALL        CLOUDY    41  33  74 W14       29.68F
SIDNEY         CLOUDY    29  24  82 S9        29.69F WCI  20
$$

NEZ057>060-069>072-079>082-110300-
SOUTHWEST NEBRASKA

CITY           SKY/WX    TMP DP  RH WIND       PRES   REMARKS
NORTH PLATTE   CLOUDY    28  22  78 SE5       29.77F WCI  23
IMPERIAL       CLOUDY    27  24  89 CALM      29.75F
LEXINGTON      CLOUDY    30  24  78 SE7       29.79F WCI  23
MCCOOK         CLOUDY    29  23  78 E6        29.78F WCI  23
OGALLALA       CLOUDY    31  26  81 SW6       29.74F WCI  25
$$

NEZ005>010-023>029-035>040-094-110300-
NORTH CENTRAL NEBRASKA

CITY           SKY/WX    TMP DP  RH WIND       PRES   REMARKS
VALENTINE      CLOUDY    12  10  92 N3        29.74F FOG
AINSWORTH      CLOUDY    27  24  86 SE9       29.74F WCI  18
BROKEN BOW     CLOUDY    31  23  72 S7        29.80R WCI  24
O`NEILL        CLOUDY    28  22  78 SE8       29.84F WCI  19
ORD            CLOUDY    30  19  63 SE10      29.81S WCI  21
THEDFORD       CLOUDY    29  25  82 S6        29.73F WCI  23
$$

NEZ041-046>049-061>064-073>077-083>087-110300-
SOUTH CENTRAL NEBRASKA

CITY           SKY/WX    TMP DP  RH WIND       PRES   REMARKS
GRAND ISLAND   CLOUDY    30  22  72 SE10      29.85F WCI  21
AURORA         CLOUDY    30  20  66 SE9       29.87R WCI  22
HASTINGS       CLOUDY    31  21  66 S9        29.85F WCI  23
HEBRON         CLOUDY    31  21  67 SE8       29.89F WCI  23
HOLDREGE       CLOUDY    31  24  74 S6        29.82F WCI  25
KEARNEY *      CLOUDY    28  19  69 S8        29.82F WCI  20
YORK           MOCLDY    30  19  64 SE9       29.89S WCI  22
$$

NEZ011>018-030>034-042>045-110300-
NORTHEAST NEBRASKA

CITY           SKY/WX    TMP DP  RH WIND       PRES   REMARKS
NORFOLK        CLOUDY    26  18  71 E10       29.90F WCI  16
ALBION         CLOUDY    29  19  68 SE9       29.88R WCI  20
BLAIR          CLOUDY    31  20  65 SE13      29.96F WCI  21
FREMONT        CLOUDY    30  20  65 SE9G17    29.96F WCI  22
TEKAMAH        CLOUDY    28  20  71 SE14      29.99F WCI  17
WAYNE          CLOUDY    25  21  84 SE9       29.94F WCI  16
$$

NEZ050>053-065>068-078-088>093-110300-
SOUTHEAST NEBRASKA

CITY           SKY/WX    TMP DP  RH WIND       PRES   REMARKS
LINCOLN        CLOUDY    32  21  64 SE10      29.96F WCI  24
OMAHA EPPLEY   CLOUDY    32  18  56 SE13      30.00F WCI  22
BEATRICE       CLOUDY    32  22  68 SE9       29.93F WCI  24
FALLS CITY     CLOUDY    33  22  63 SE10      29.99F WCI  25
NEBRASKA CITY  CLOUDY    31  17  55 SE10      29.98F WCI  22
PLATTSMOUTH    CLOUDY    32  17  54 SE12G18   29.97F WCI  23
$$

NEZ044-045-051>053-067-110300-
OMAHA AREA

CITY           SKY/WX    TMP DP  RH WIND       PRES   REMARKS
OMAHA EPPLEY   CLOUDY    32  18  56 SE13      30.00F WCI  22
BLAIR          CLOUDY    31  20  65 SE13      29.96F WCI  21
FREMONT        CLOUDY    30  20  65 SE9G17    29.96F WCI  22
MILLARD        CLOUDY    33  20  59 SE9       29.98S WCI  26
OFFUTT AFB     CLOUDY    32  20  61 SE10      29.99F WCI  23
PLATTSMOUTH    CLOUDY    32  17  54 SE12G18   29.97F WCI  23
WAHOO          FAIR      30  19  63 SE13      29.95F WCI  20
$$



USA.gov is the U.S. government's official web portal to all federal, state and local government web resources and services.